Regional Weather Roundup
Issued by NWS

Home | Current Version | Previous Version | Graphics & Text | Print | Product List | Glossary On
Versions: 1 2 3 4 5 6 7 8 9 10 11 12 13 14 15 16 17 18 19 20 21 22 23 24 25 26 27 28 29 30 31 32 33 34 35 36 37 38 39 40 41 42 43 44 45 46 47 48 49 50
000
ASUS43 KOAX 081310
RWRNE

WEATHER ROUNDUP FOR NEBRASKA
NATIONAL WEATHER SERVICE OMAHA NE
700 AM CST THU DEC 08 2016

NOTES: SATELLITE DATA IS BEING USED TO AUGMENT CLOUD COVER ABOVE
       12000 FEET.
       "FAIR" INDICATES FEW OR NO CLOUDS BELOW 12,000 FEET WITH NO
       SIGNIFICANT WEATHER AND/OR OBSTRUCTIONS TO VISIBILITY.

  * THESE STATIONS DO NOT REPORT WEATHER SUCH AS RAIN...SNOW OR FOG.

NEZ001>004-019>022-054>056-081400-
NEBRASKA PANHANDLE

CITY           SKY/WX    TMP DP  RH WIND       PRES   REMARKS
SCOTTSBLUFF    CLOUDY    -9 -15  75 NW9       30.52R WCI -26
ALLIANCE       CLOUDY   -14 -19  79 W9        30.50R WCI -33
CHADRON        CLEAR     -2  -9  72 SW6       30.57R WCI -14
KIMBALL        CLOUDY   -12 -16  82 W6        30.43R WCI -26
SIDNEY         CLOUDY    -8 -14  74 W12       30.48R WCI -27
$$

NEZ057>060-069>072-079>082-081400-
SOUTHWEST NEBRASKA

CITY           SKY/WX    TMP DP  RH WIND       PRES   REMARKS
NORTH PLATTE   CLEAR     -1  -6  79 W7        30.59R WCI -14
IMPERIAL       CLOUDY    -3 -10  72 NW10      30.55R WCI -20
LEXINGTON      CLEAR      4  -2  74 NW12      30.58R WCI -12
MCCOOK         CLEAR     -5  -9  83 SW5       30.61R WCI -16
OGALLALA       CLEAR      3  -5  70 NW15      30.55R WCI -16
$$

NEZ005>010-023>029-035>040-094-081400-
NORTH CENTRAL NEBRASKA

CITY           SKY/WX    TMP DP  RH WIND       PRES   REMARKS
VALENTINE      CLEAR      4  -5  66 NW12      30.58R WCI -12
AINSWORTH      CLEAR      5  -2  73 NW16      30.56R WCI -14
BROKEN BOW     CLEAR      6  -2  69 NW21G29   30.55R WCI -14
O`NEILL        MOCLDY     7   1  74 NW15G22   30.56R WCI -10
ORD            CLEAR      7  -3  64 NW18      30.56R WCI -12
THEDFORD       CLEAR      3  -3  74 NW10      30.55R WCI -12
$$

NEZ041-046>049-061>064-073>077-083>087-081400-
SOUTH CENTRAL NEBRASKA

CITY           SKY/WX    TMP DP  RH WIND       PRES   REMARKS
GRAND ISLAND   CLEAR      8   0  69 NW16      30.58R WCI -10
AURORA         CLEAR      9   1  68 NW17G26   30.57R WCI  -9
HASTINGS       CLEAR      9  -1  64 NW17G25   30.58R WCI  -9
HEBRON         CLEAR     10   3  72 NW7       30.61R WCI   0
HOLDREGE       CLEAR      7  -2  69 NW13G20   30.58R WCI -10
KEARNEY *      CLEAR      9  -4  56 NW12      30.58R WCI  -6
YORK           CLEAR      9   1  72 NW23      30.56R WCI -12
$$

NEZ011>018-030>034-042>045-081400-
NORTHEAST NEBRASKA

CITY           SKY/WX    TMP DP  RH WIND       PRES   REMARKS
NORFOLK        CLEAR      7   0  73 NW15      30.54R WCI -10
ALBION         CLEAR      7  -1  70 NW15      30.56R WCI -10
BLAIR          CLEAR     11   4  74 NW15      30.52R WCI  -6
FREMONT        CLEAR     10   4  77 NW16      30.56R WCI  -8
TEKAMAH        CLEAR     11   3  70 NW21G29   30.54R WCI  -8
WAYNE          PTCLDY     9   3  77 NW17G23   30.54R WCI  -9
$$

NEZ050>053-065>068-078-088>093-081400-
SOUTHEAST NEBRASKA

CITY           SKY/WX    TMP DP  RH WIND       PRES   REMARKS
LINCOLN        CLEAR     11   2  67 NW12G22   30.59R WCI  -3
OMAHA EPPLEY   PTCLDY    11   2  67 NW21      30.55R WCI  -8
BEATRICE       CLEAR     11   3  69 NW10      30.59R WCI  -2
FALLS CITY     CLEAR     13   5  70 NW12      30.57R WCI  -1
NEBRASKA CITY  CLEAR     11   1  61 NW14      30.55R WCI  -4
PLATTSMOUTH    CLEAR     11   2  65 NW12G18   30.54R WCI  -3
$$

NEZ044-045-051>053-067-081400-
OMAHA AREA

CITY           SKY/WX    TMP DP  RH WIND       PRES   REMARKS
OMAHA EPPLEY   PTCLDY    11   2  67 NW21      30.55R WCI  -8
BLAIR          CLEAR     11   4  74 NW15      30.52R WCI  -6
FREMONT        CLEAR     10   4  77 NW16      30.56R WCI  -8
MILLARD        CLEAR     12   3  66 NW14G20   30.56R WCI  -3
OFFUTT AFB     CLEAR     11   3  70 NW12      30.55R WCI  -3
PLATTSMOUTH    CLEAR     11   2  65 NW12G18   30.54R WCI  -3
WAHOO          FAIR      10   2  70 NW17G23   30.56R WCI  -7
$$



USA.gov is the U.S. government's official web portal to all federal, state and local government web resources and services.